RH
64 65 66 66 66 66 67 67 67 65 64 63 61 59 57 58 58 55 57 55 49 49 49 40 38 34 22 27 25 17 38 36 26 32 30 28 28 28 27 28 26 23 26 34 36 38 36
64 65 66 67 67 67 68 68 67 65 64 63 62 58 57 56 57 54 52 49 49 49 46 38 36 32 22 30 18 20 24 25 27 33 30 28 29 27 28 30 28 30 33 36 31 26 28
63 65 66 66 68 68 68 68 67 65 64 63 60 59 57 57 57 54 45 45 48 44 40 40 33 19 25 26 22 25 25 29 27 35 33 30 27 29 32 32 29 28 26 33 27 29 33
65 65 66 67 68 68 69 69 67 65 64 62 60 59 58 57 52 54 47 42 46 47 41 35 27 21 27 24 27 22 25 32 29 31 37 34 29 33 35 34 34 36 37 47 29 34 33
65 65 66 67 68 68 68 69 67 65 64 62 61 58 57 54 56 53 45 42 42 39 31 22 20 19 22 21 25 27 28 34 33 32 34 20 32 38 41 46 50 52 69 52 42 32 35
66 65 67 68 68 67 67 68 67 65 65 63 62 60 56 52 57 54 49 38 37 30 24 13 16 21 23 28 29 30 26 34 33 39 37 40 43 44 51 50 76 63 75 62 53 38 40
66 64 66 68 68 68 68 68 68 66 65 64 62 61 58 53 59 53 40 34 23 29 31 26 27 24 26 27 32 30 33 33 34 38 49 42 48 61 58 54 51 65 81 78 52 39 47
65 63 66 67 69 67 67 67 67 66 65 64 62 59 57 48 56 55 59 62 71 36 30 28 27 29 28 38 37 33 37 39 38 47 50 44 65 50 48 46 48 52 72 76 56 43 49
64 62 64 66 68 66 67 68 67 66 66 65 62 56 53 50 42 53 64 70 67 61 32 30 32 36 37 35 38 38 41 45 52 55 62 65 51 39 42 46 48 55 75 74 72 57 52
63 62 61 65 67 66 67 68 67 67 67 65 62 55 54 51 41 51 53 55 68 58 36 28 31 33 36 42 33 31 47 51 55 69 54 47 40 41 50 40 43 80 46 58 70 81 88
63 64 60 64 66 66 67 67 67 67 68 66 62 55 52 40 44 48 47 60 63 55 54 31 34 35 40 38 40 32 44 46 63 57 54 47 54 55 51 40 42 68 57 64 61 87 86
64 64 60 62 65 65 66 67 66 66 66 66 61 52 41 43 57 59 60 66 49 68 50 25 41 46 43 44 46 47 48 46 48 50 50 60 49 57 55 42 45 55 63 48 55 70 83
66 65 60 61 63 63 65 66 66 65 65 65 59 49 46 44 48 60 71 58 65 58 23 29 44 48 48 54 46 52 56 82 77 72 80 62 53 57 49 70 57 78 84 88 85 89 76
68 66 61 60 61 61 63 66 64 65 66 64 57 49 50 51 64 65 57 43 46 20 29 47 49 43 49 57 55 58 61 80 73 80 84 89 56 62 46 78 89 90 83 91 97 80 65
69 68 63 60 60 60 61 65 65 64 67 58 51 52 51 54 58 57 44 58 26 44 51 52 42 36 37 51 60 63 76 89 89 85 79 90 68 48 50 64 74 76 90 70 98 89 93
70 70 66 61 60 59 60 63 64 64 66 52 50 37 42 58 63 55 60 38 46 54 50 46 62 60 72 66 64 83 78 74 82 78 85 80 98 52 51 64 68 77 81 87 92 99 93
71 71 70 64 61 59 60 61 64 64 65 52 47 30 32 58 47 43 70 66 60 51 51 50 60 78 86 85 84 90 85 67 87 70 80 92 95 70 60 74 85 88 94 90 95 95 94
74 71 71 66 65 58 60 60 64 63 61 49 44 40 44 48 38 56 68 54 42 53 52 57 64 78 82 83 90 83 79 69 71 78 78 88 96 99 77 78 84 91 90 94 94 93 86
70 71 71 69 68 60 59 59 63 63 61 63 55 38 47 40 53 62 56 48 47 47 48 50 58 62 74 78 77 73 60 47 54 58 80 92 95 96 70 79 81 99 98 95 94 95 96
73 69 72 71 70 63 58 59 62 62 59 62 78 72 47 62 64 74 74 47 51 52 54 50 52 56 63 71 66 80 62 51 53 53 53 68 97 81 87 64 84 88 86 93 95 98 94
79 74 74 74 72 65 58 58 61 61 55 57 83 68 63 66 47 57 66 77 46 49 57 58 56 55 76 86 77 79 67 61 54 59 68 84 99 92 81 77 82 90 93 99 97 90 98
82 79 77 75 73 67 60 57 60 58 52 69 85 87 92 88 67 62 66 73 45 58 61 54 54 55 69 83 62 68 60 73 73 71 80 85 96 97 96 76 92 97 95 96 92 86 89
83 81 80 75 74 69 62 58 60 57 49 78 95 75 91 79 77 76 56 65 62 60 52 46 54 76 76 66 63 58 56 60 64 83 88 97 99 98 96 72 86 94 97 97 86 92 90
84 82 80 79 76 71 64 59 58 59 46 70 85 79 91 82 84 59 52 66 65 58 60 54 63 74 62 74 74 85 89 82 90 91 72 98 98 91 99 75 60 71 86 88 96 77 94
86 84 82 82 78 73 66 60 59 61 61 79 93 75 92 92 70 56 62 70 70 67 72 65 63 67 77 71 71 62 52 54 61 72 87 89 91 94 98 100 68 78 76 85 99 89 94
86 85 84 83 81 77 67 63 64 67 67 86 93 78 90 89 62 56 75 76 83 85 79 65 75 77 65 80 75 81 56 73 70 69 72 70 83 92 92 98 93 68 63 55 81 91 65
86 87 85 84 82 79 69 66 64 62 63 79 94 78 82 90 72 70 79 74 70 81 84 92 90 73 66 89 85 84 70 77 90 89 88 94 96 96 91 97 78 61 62 62 81 79 73
88 87 86 85 84 80 70 67 62 65 62 73 94 87 74 95 81 72 61 82 83 85 74 81 79 76 89 82 86 92 98 93 95 84 93 88 93 93 92 99 61 69 66 78 75 66 76
88 88 87 85 84 81 74 68 66 64 62 66 81 80 76 91 88 85 86 84 78 60 86 95 80 88 84 91 97 95 93 100 97 86 85 84 80 86 80 65 59 70 66 63 68 79 88
Wind_Speed
9 8 10 11 11 12 12 12 13 13 12 12 13 12 10 10 10 7 7 7 9 10 10 10 11 6 7 9 4 7 22 17 6 7 6 6 9 3 4 2 2 3 2 5 5 6 6
9 8 9 10 10 11 11 12 12 12 12 12 12 11 10 10 9 7 5 6 8 7 7 8 11 10 9 11 9 8 10 10 6 5 5 7 3 3 4 2 2 3 3 6 4 5 5
8 8 8 9 10 10 11 11 12 13 12 12 12 11 10 10 9 7 4 5 7 6 4 5 7 5 15 7 1 8 5 5 5 3 4 3 3 7 1 1 3 2 5 5 2 3 4
7 7 8 8 9 10 10 11 12 13 12 12 12 12 10 11 10 6 3 5 6 8 6 7 6 6 6 1 3 18 15 4 6 5 2 2 5 6 5 3 5 4 3 6 4 6 3
7 6 7 7 8 9 10 12 13 13 13 12 13 13 11 11 11 4 2 6 5 9 10 3 6 6 4 5 8 6 9 6 6 5 7 4 6 4 7 4 3 7 6 8 10 3 5
6 6 6 6 8 9 10 11 12 13 14 13 13 14 12 13 8 4 7 8 12 7 6 2 4 4 6 7 6 13 14 5 6 4 5 9 5 4 4 7 2 8 6 6 14 5 5
5 5 5 6 7 9 10 11 12 13 14 13 13 14 10 14 10 7 4 4 6 9 12 8 1 4 5 8 2 17 13 6 6 9 5 5 9 6 6 1 3 5 4 12 15 10 18
5 4 4 5 7 8 10 11 12 13 14 12 12 13 9 9 13 8 6 6 1 4 7 4 2 3 2 3 6 18 11 8 7 6 7 4 4 5 6 2 7 10 12 8 12 7 17
4 3 3 4 6 8 9 11 12 13 14 13 12 12 9 2 2 8 6 3 2 1 6 2 3 3 5 4 5 13 9 4 6 5 5 4 3 8 4 4 17 11 4 6 14 23 3
4 3 2 4 6 8 9 11 12 13 13 12 11 12 12 3 6 1 3 2 1 1 5 9 7 6 7 1 5 5 5 1 7 5 4 2 5 7 5 7 12 7 3 19 18 9 4
5 4 2 3 5 7 9 11 11 12 12 11 10 10 12 7 6 3 1 1 1 3 6 6 5 4 5 9 5 14 4 7 2 5 5 4 6 5 5 11 10 8 23 17 9 1 4
6 5 2 1 4 7 9 10 11 12 12 10 8 9 3 5 4 1 0 2 3 7 5 5 4 7 5 5 5 8 9 7 1 3 2 3 3 1 4 13 5 15 11 1 3 3 3
7 6 3 0 3 6 8 10 11 12 11 8 4 9 6 1 1 1 1 3 5 9 2 8 6 6 2 6 5 8 5 11 7 9 9 8 3 3 4 4 4 12 8 6 8 6 5
9 7 5 2 3 5 8 10 11 12 12 6 4 5 5 2 1 3 3 4 11 1 2 1 4 4 4 8 3 9 4 6 6 5 2 6 8 4 8 4 4 5 5 4 6 6 10
10 8 6 3 3 5 8 10 11 12 11 4 4 3 3 4 2 2 4 9 3 3 2 6 4 5 3 2 3 7 5 1 4 2 3 5 7 3 1 2 5 6 5 1 3 2 2
11 9 7 5 2 5 7 10 11 12 11 4 3 2 2 5 3 3 8 4 2 0 1 1 3 4 4 6 7 7 3 4 3 2 2 3 8 3 3 2 3 5 1 4 3 8 9
13 11 9 7 3 4 7 9 11 12 10 2 4 4 2 1 2 8 6 3 3 1 1 1 2 1 3 3 1 2 4 5 1 3 3 4 3 7 4 1 4 2 4 3 1 2 4
14 13 11 8 5 3 6 9 12 12 9 6 3 3 2 2 7 4 3 3 2 2 2 2 4 3 4 0 2 2 3 6 6 3 2 3 3 5 7 4 4 4 6 5 1 5 6
15 14 12 10 7 4 5 7 10 11 7 3 3 1 2 2 5 2 1 2 1 2 1 2 1 2 3 2 3 3 3 3 4 3 4 3 1 7 9 4 3 2 3 4 4 3 6
16 15 14 11 9 6 4 6 9 9 4 5 4 3 5 7 2 8 5 3 3 2 2 1 2 1 1 1 4 4 3 3 3 2 3 2 3 8 9 15 2 12 8 5 3 3 4
17 16 15 13 11 8 4 4 7 7 3 5 4 1 2 1 3 4 4 3 4 4 1 1 1 3 5 1 3 4 4 5 2 4 3 4 4 6 14 18 11 9 9 4 5 8 5
18 17 15 14 13 10 6 3 5 4 4 6 5 6 3 2 2 4 1 4 6 3 5 3 4 4 6 6 8 5 3 3 6 3 4 2 5 4 10 2 5 3 3 6 7 9 13
20 18 17 16 14 11 7 3 4 2 5 4 1 2 6 2 2 4 4 6 6 6 3 3 4 3 5 11 8 10 7 6 6 2 3 1 3 5 8 8 3 4 7 6 8 6 9
21 20 18 17 15 12 8 4 1 2 4 4 3 4 5 2 2 3 5 3 5 4 5 2 4 4 3 3 4 1 2 5 4 5 7 2 1 2 7 9 5 8 4 8 10 17 5
22 21 20 18 16 14 9 5 1 6 5 4 2 4 4 3 2 2 5 3 3 3 3 3 4 2 1 4 4 4 3 1 1 2 3 5 2 4 4 2 8 2 3 7 4 11 5
24 22 21 19 17 15 12 7 6 8 11 5 2 2 4 8 5 5 4 4 4 3 3 2 2 2 3 3 4 3 3 3 5 5 5 5 3 2 3 3 5 7 6 10 4 7 2
25 24 23 21 20 18 15 12 11 8 9 5 2 1 5 6 2 4 3 5 5 3 2 3 3 2 4 2 2 1 3 2 3 3 3 3 3 3 3 5 9 3 11 8 7 10 20
27 26 25 23 22 20 18 15 12 11 13 5 2 2 4 4 1 1 4 5 3 2 5 4 4 3 3 4 3 2 2 3 2 4 4 3 2 3 1 3 8 1 3 3 7 12 14
29 28 27 25 24 22 19 17 15 14 10 6 4 1 2 7 4 1 2 1 1 5 7 2 3 3 4 5 1 3 3 1 2 4 2 3 7 4 8 7 1 2 4 5 5 10 9
Wind_Direction
86 72 66 57 48 44 41 36 31 28 28 28 27 29 32 31 31 41 41 42 41 36 33 31 39 45 58 44 93 292 335 334 351 353 26 30 40 51 71 52 19 57 338 301 295 283 251
90 74 66 58 47 43 38 34 29 27 26 26 24 24 23 25 25 28 51 40 26 22 21 52 43 59 70 72 254 311 323 330 0 26 19 36 62 85 95 58 70 309 278 278 288 281 274
89 76 66 58 48 41 35 31 27 25 25 24 21 18 15 14 13 17 49 32 26 36 31 75 60 78 62 123 198 306 324 301 328 9 48 31 35 73 70 24 331 330 343 324 246 283 292
95 77 64 55 48 40 33 29 25 24 22 21 17 11 9 7 6 11 43 33 34 45 80 75 70 69 97 327 331 4 347 347 3 18 53 349 86 91 46 330 26 25 36 340 298 314 296
95 78 60 50 43 37 32 28 25 22 19 16 12 8 5 3 360 23 62 48 86 56 52 14 38 86 28 335 360 338 16 331 323 5 20 55 62 69 1 41 39 26 284 293 309 250 287
100 83 60 48 39 32 30 26 23 20 18 13 8 3 1 4 17 39 72 82 62 33 4 36 83 55 25 323 322 346 1 3 28 344 17 31 50 64 28 33 20 315 313 277 294 295 335
113 89 64 46 34 30 26 23 21 18 16 12 6 1 3 21 43 42 28 25 20 2 23 85 194 96 299 307 39 357 347 358 18 61 19 7 54 21 318 326 199 253 248 278 280 282 326
121 97 68 42 32 25 21 19 19 17 13 11 8 6 16 48 52 48 66 75 135 167 88 26 65 43 4 345 357 357 5 49 29 21 333 29 68 312 287 236 336 317 299 289 285 296 317
132 105 70 40 26 20 17 16 16 16 13 9 9 11 355 74 61 45 79 96 303 292 89 24 47 30 331 14 44 344 16 8 41 28 8 88 8 317 346 331 345 328 237 289 293 325 283
152 117 69 30 23 14 13 14 15 13 13 12 9 15 14 155 52 220 55 297 307 122 87 338 350 6 354 46 61 350 7 42 23 9 2 43 346 350 337 351 354 307 277 302 304 327 292
170 145 102 19 9 10 7 9 10 10 11 12 10 21 40 49 144 64 176 253 103 60 47 348 348 311 349 62 317 359 354 24 22 339 48 289 357 350 0 339 336 274 302 304 291 200 12
180 163 147 30 359 2 4 3 3 4 6 9 14 24 25 22 45 50 130 88 58 46 310 350 360 356 15 32 15 323 18 13 12 353 60 254 294 265 318 309 324 322 306 352 78 102 6
186 175 179 229 351 356 358 358 358 358 358 2 31 55 46 45 75 117 92 52 37 82 27 342 336 2 32 336 351 12 15 22 43 10 15 331 333 341 350 330 327 1 352 348 356 5 253
191 185 192 231 332 350 352 354 355 354 355 3 87 92 54 38 354 113 61 54 63 149 338 14 349 320 44 357 32 351 19 24 33 60 14 24 336 16 350 137 242 347 87 117 302 308 305
200 194 198 221 312 341 349 349 351 354 358 26 120 22 47 343 130 75 84 49 184 226 256 341 313 18 353 12 5 12 48 270 245 48 84 10 273 318 321 75 108 321 35 209 267 261 309
203 201 205 217 272 328 342 346 347 351 359 20 90 64 336 322 126 78 70 118 176 334 117 52 84 53 323 330 7 35 14 242 297 193 150 244 297 247 308 67 62 105 273 12 7 330 313
202 201 205 214 234 309 334 341 345 349 356 92 55 60 262 15 96 50 86 177 149 142 130 71 169 318 221 300 347 322 266 274 206 10 110 144 141 293 351 57 188 5 17 27 206 260 291
201 203 205 210 221 281 325 340 347 349 359 60 97 47 319 102 50 48 81 134 146 159 88 93 93 134 188 238 304 298 257 214 149 166 317 220 162 282 258 293 162 136 179 138 126 289 254
207 204 208 205 212 245 310 337 348 353 32 115 85 285 332 76 90 73 162 76 70 134 145 136 158 192 180 216 346 226 257 258 184 318 190 214 336 319 348 360 36 169 250 188 211 228 233
204 210 212 205 205 229 287 329 346 355 56 83 81 35 352 45 48 124 139 167 158 36 111 131 156 123 108 286 209 282 280 282 314 231 275 116 150 172 222 254 170 299 283 233 217 235 258
197 205 209 201 205 217 245 312 341 2 57 92 27 173 161 355 8 96 93 149 146 195 37 133 227 213 152 320 278 236 244 303 317 352 41 97 249 211 249 262 279 255 264 167 176 236 246
195 197 204 202 204 212 225 278 333 2 94 80 123 130 9 108 84 95 257 222 175 188 142 222 203 176 167 190 196 251 219 218 257 333 5 66 271 346 286 135 136 266 185 202 232 253 260
194 196 199 201 204 209 215 251 334 45 69 96 145 42 105 309 88 93 217 184 207 147 218 209 181 141 221 242 230 237 222 221 232 336 313 25 322 344 272 317 65 12 219 225 251 241 252
193 196 195 197 201 205 210 229 345 74 119 123 170 113 92 193 139 204 167 151 170 204 175 195 154 154 239 316 274 193 188 237 236 254 212 271 340 198 286 330 17 241 225 227 243 292 228
193 194 194 193 195 199 201 204 172 146 121 94 136 117 119 132 157 149 158 131 81 353 195 225 220 218 309 17 14 357 338 311 77 103 207 190 83 311 318 241 289 5 286 309 19 308 203
192 192 192 190 188 190 192 176 135 136 125 90 71 109 104 120 232 113 144 164 167 200 342 238 58 335 54 72 50 55 295 251 315 335 75 88 74 133 341 332 276 239 286 316 119 296 282
191 189 190 189 184 183 187 176 161 148 129 109 92 57 93 105 256 115 171 169 135 102 163 292 284 52 39 56 63 120 284 167 303 287 297 344 17 199 276 276 287 276 305 305 42 268 330
188 189 187 187 183 181 184 179 167 149 132 94 125 5 115 110 164 182 170 140 125 141 150 208 62 342 52 76 126 207 177 249 339 248 195 171 117 269 80 337 318 354 322 66 246 304 312
187 187 185 185 181 180 180 178 170 161 131 113 98 13 68 80 152 101 78 8 278 177 128 10 181 162 174 93 81 113 214 120 146 287 79 326 186 203 183 231 209 233 216 252 272 295 300